Погода в Туле

Погода в Туле : погода сейчас, прогноз погоды и архив. Всё, что Вы хотите узнать о погоде в Туле!

Хотите узнать прогноз погоды в Туле? Тогда Вам сюда: Погода в Туле

Поиск расширенной информации на нашем сайте:

Полезная информация:

Другие новости

Новости СМИ2

Главная страница сайта

Новости сайта

03.07.2017

Напоминаем, что на нашем специализированном сайте Метеоцентр.Азия вы можете получить высокодетализированные автоматические прогнозы погоды по пунктам России, СНГ и мира в авиационном формате (включающие направление и скорость ветра, видимость, явления погоды, количество и форму облачности, нижнюю и верхнюю границу облачности).

Рекомендуем:

Погода в Туле - сегодня

Время (UTC), дата Ветер
(°,м/с) 
Видим.   Явления Облачность Т
(°С)
Тd
(°С)
f(%) Тe
(°С)
Pmin
(гПа)
dP
(гПа)
Po
(мм)
O2
(г/м3)
Тmin Tmax R s Состояние
почвы
09 15.09.19 270 (З) 4-10{10}  10 км    6/6 600 м 
[Cu hum]
+13.3 +3.1 50 +13  1017.6  -0.6  745  286           
12 15.09.19 260 (З) 4{10}  10 км    6/4 600 м верхняя 
[Cu hum|Ci fib]
+15.2 -0.8 33 +15  1015.6  -1.8  743  284           
15 15.09.19 220 (ЮЗ) 10 км    10/4 1000 м средняя 
[Sc diur, vesp|As op]
+13.5 +1.4 44 +14  1013.8  -1.9  742  285           
18 15.09.19 230 (ЮЗ) 3{11}  4000 м  слаб. дождь  10/10 300 м 
[Frnb|Ns]
+10.6 +6.2 74 +10  1011.8  -2.1  740  286    +16.1  0.0     
21 15.09.19 210 (ЮЗ) 4000 м  слаб. дождь  10/10 300 м 
[Frnb|Ns]
+10 +6.6 79 +9  1008.9  -2.9  738  286           
00 16.09.19 210 (ЮЗ) 4000 м  слаб. дождь  10/10 300 м 
[Frnb|Ns]
+9.7 +7.3 85 +9  1006.4  -2.4  736  285           
03 16.09.19 210 (ЮЗ) 4000 м  слаб. дождь  10/10 300 м 
[Frnb|Ns]
+9.4 +7.8 90 +8  1003.6  -2.8  734  285  +9.4       
06 16.09.19 220 (ЮЗ) 10 км  в посл. час дождь  10/9 300 м средняя 
[Frnb|As op]
+10 +8.8 92 +9  1002.1  -1.4  733  283  +9.3      влажная 
09 16.09.19 230 (ЮЗ) 6-10{11}  10 км  {дождь}  9/8 600 м средняя 
[Sc|As trans]
+13.4 +8.9 74 +12  1000.8  -1  733  280           
12 16.09.19 240 (ЮЗ) 6-12{14}  10 км  {дождь}  8/6 600 м средняя 
[Cu med, cong|Ac trans]
+16.3 +6.9 54 +16  1000.4  -0.2  732  277           
15 16.09.19 230 (ЮЗ) 5-11{13}  10 км    4/4 1000 м 
[Cu med, cong]
+14.2 +6.6 60 +14  1001.1  0.5  733  280         
18 16.09.19 230 (ЮЗ) 4{11}  10 км    5/0 средняя 
[Ac trans]
+11.7 +6.2 69 +11  1002  0.7  733  282    +16.4  0.3     
21 16.09.19 230 (ЮЗ) 10 км    4/0 средняя, верхняя 
[Ac trans|Ci fib]
+9.8 +6.1 78 +10  1001.5  -0.6  733  284           
00 17.09.19 230 (ЮЗ) 10 км    8/0 средняя 
[Ac trans]
+8.9 +6.1 83 +8  1000.7  -0.9  732  285           
03 17.09.19 230 (ЮЗ) 10 км    6/0 средняя 
[Ac trans]
+7.7 +5.9 88 +7  1000.7  -0.1  732  286  +7.7         
06 17.09.19 240 (ЮЗ) 10 км    8/8 600 м кучево-дожд. 
[Cb calv]
+10.6 +6.3 75 +10  1000.5  0.1  732  283  +7.3        сухая 
09 17.09.19 250 (З) 4{11}  10 км    8/6 600 м кучево-дожд., верхняя 
[Cb calv|Ci fib]
+13.9 +4.5 53 +14  999.9  -0.3  732  280           
12 17.09.19 240 (ЮЗ) 6-11{12}  10 км  в посл. час ливневой дождь  8/8 600 м кучево-дожд. 
[Cb calv]
+13.2 +2.9 50 +12  1000.1  0.1  732  281           
15 17.09.19 230 (ЮЗ) 4{13}  10 км  {ливн. осадки}  3/3 600 м кучево-дожд. 
[Cb calv]
+11.1 +4.4 63 +10  1000.9  0.6  732  283      0.1     
18 17.09.19 220 (ЮЗ) 10 км  {ливн. осадки}  8/6 1000 м средняя 
[Sc|Ac trans]
+7.8 +3.7 75 +7  1001.9  0.7  733  287    +14.7  0.1     
21 17.09.19 220 (ЮЗ) 10 км    8/8 1000 м 
[Sc]
+7.3 +3.9 79 +7  1001.4  -0.5  733  287           
00 18.09.19 220 (ЮЗ) 10 км    9/4 1000 м средняя, верхняя 
[Sc|Ac trans|Ci fib]
+6.2 +3.8 85 +6  1001.3  -0.2  732  288           
03 18.09.19 200 (Ю) 10 км    9/5 1000 м средняя, верхняя 
[Sc|Ac trans|Ci fib]
+5 +3.5 90 +6  1000.6  -0.8  732  289  +4.6         
06 18.09.19 220 (ЮЗ) 10 км    10/4 1000 м средняя, верхняя 
[Sc|Ac trans|Cs]
+7.8 +4 77 +8  999.9  -0.4  732  286  +4.6        сухая 
09 18.09.19 310 (СЗ) 10 км  слаб. ливневой дождь  10/8 600 м кучево-дожд., средняя 
[Cb calv|As op]
+7.6 +6.3 91 +9  999.4  -0.5  731  286           
Время (UTC), дата Ветер
(°,м/с) 
Видим.   Явления Облачность Т
(°С)
Тd
(°С)
f(%) Тe
(°С)
Pmin
(гПа)
dP
(гПа)
Po
(мм)
O2
(г/м3)
Тmin Tmax R s Состояние
почвы

Для получения пояснительной информации подведите курсор к названию столбца.

ПОГОДА в Туле - архив

Всё, что Вы хотите узнать о погоде в Туле - удобно и подробно!

Выберите нужную дату (начиная с 1 января 2018* года) и нажмите кнопку "Найти".
Будут отображены архивные сводки погоды по пункту Тула, начиная с указанной даты.


Отображать данные в формате CSV (для использования в таблицах Excel)


Внимание! Наш архив погоды предназначен исключительно для личного некоммерческого использования в познавательных целях. Если Вам необходимы официальные справки о состоянии погоды (для производственных, юридических, коммерческих и т.п. целей), обращайтесь в органы Росгидромета.

*Примечание: данная дата относится к архиву по метеостанциям СССР (Россия, СНГ, Балтия).
Архив по метеостанциям Зарубежной Европы и Азии (кроме Китая) хранится 10 дней, по другим регионам земного шара (Китай, Африка, Америка, Австралия, Океания) - 1 день.

Тула - район местоположения метеостанции


Название, широта, долгота, высота метеостанции:
Тула 54.2°ш. 37.6°д. 203 м над ур. моря [Российская Федерация]

Дополнительная информация

В oтличие oт бoльшинства пoгoдных сайтoв мы публикуем пoдрoбную метеoинфoрмацию в детальнoм прoфессиoнальнoм фoрмате.

Характеристики температуры и влажнoсти вoздуха измеряются на высoте 2 м в тени вдали oт зданий и деревьев.
Скoрoсть ветра измеряется на высoте 10 м (на урoвне рoста челoвека скoрoсть ветра ниже в 1.5-2 раза). Если метеoстанция нахoдится в гoрoде или в лесу, тo скoрoсть ветра занижена на 2-4 м/с пo сравнению с oткрытым местoм. Скoрoсть ветра над акватoриями крупных рек и oзёр, а также на вершинах хoлмoв на 2-5 м/с выше, чем в oбычных услoвиях.
Атмoсфернoе давление в разных тoчках местнoсти мoжет значительнo oтличаться oт давления на метеoстанции, в зависимoсти oт услoвий рельефа (при пoдъёме на 10 м давление пoнижается примернo на 1 мм рт.ст.).